| time (UTC) | temp C | wind direction | speed KPH | gust KPH | rain 1hr cm | rain 24hr cm | rain mn cm | humidity % | barometer mb |
| 20260510091551 | 17 | 75 | 4.8 | 19.3 | 0.00 | 0.00 | 0.00 | 61 | 1014.9 |
| 20260510091042 | 16 | 346 | 6.4 | 19.3 | 0.00 | 0.00 | 0.00 | 60 | 1015.0 |
| 20260510090543 | 17 | 41 | 6.4 | 20.9 | 0.00 | 0.00 | 0.00 | 60 | 1014.9 |
| 20260510090052 | 17 | 51 | 3.2 | 20.9 | 0.00 | 0.00 | 0.00 | 62 | 1015.0 |
| 20260510085542 | 16 | 34 | 4.8 | 20.9 | 0.00 | 0.00 | 0.00 | 61 | 1015.0 |
| 20260510085042 | 16 | 18 | 6.4 | 17.7 | 0.00 | 0.00 | 0.00 | 63 | 1015.0 |
| 20260510084548 | 16 | 15 | 3.2 | 17.7 | 0.00 | 0.00 | 0.00 | 62 | 1015.0 |
| 20260510084042 | 16 | 93 | 3.2 | 22.5 | 0.00 | 0.00 | 0.00 | 63 | 1014.9 |
| 20260510083544 | 16 | 46 | 3.2 | 22.5 | 0.00 | 0.00 | 0.00 | 63 | 1015.1 |
| 20260510083053 | 16 | 41 | 4.8 | 19.3 | 0.00 | 0.00 | 0.00 | 63 | 1015.0 |
| 20260510082542 | 16 | 54 | 3.2 | 20.9 | 0.00 | 0.00 | 0.00 | 65 | 1015.1 |
| 20260510082042 | 15 | 36 | 8.0 | 20.9 | 0.00 | 0.00 | 0.00 | 66 | 1015.1 |
| 20260510081556 | 15 | 301 | 4.8 | 17.7 | 0.00 | 0.00 | 0.00 | 66 | 1015.2 |
| 20260510081041 | 15 | 36 | 4.8 | 22.5 | 0.00 | 0.00 | 0.00 | 66 | 1015.2 |
| 20260510080541 | 15 | 39 | 4.8 | 22.5 | 0.00 | 0.00 | 0.00 | 67 | 1015.2 |
| 20260510080043 | 15 | 344 | 6.4 | 16.1 | 0.00 | 0.00 | 0.00 | 67 | 1015.2 |
| 20260510075545 | 15 | 193 | 4.8 | 16.1 | 0.00 | 0.00 | 0.00 | 67 | 1015.2 |
| 20260510075042 | 15 | 31 | 4.8 | 22.5 | 0.00 | 0.00 | 0.00 | 68 | 1015.3 |
| 20260510074552 | 14 | 178 | 8.0 | 22.5 | 0.00 | 0.00 | 0.00 | 69 | 1015.3 |
| 20260510074042 | 14 | 338 | 4.8 | 17.7 | 0.00 | 0.00 | 0.00 | 70 | 1015.4 |
| 20260510073541 | 14 | 51 | 3.2 | 17.7 | 0.00 | 0.00 | 0.00 | 69 | 1015.5 |
| 20260510073100 | 14 | 9 | 4.8 | 20.9 | 0.00 | 0.00 | 0.00 | 71 | 1015.6 |
| 20260510072541 | 13 | 33 | 6.4 | 20.9 | 0.00 | 0.00 | 0.00 | 71 | 1015.7 |
| 20260510072045 | 13 | 342 | 3.2 | 14.5 | 0.00 | 0.00 | 0.00 | 72 | 1015.8 |
| 20260510071548 | 13 | 282 | 3.2 | 14.5 | 0.00 | 0.00 | 0.00 | 73 | 1015.8 |
| 20260510071040 | 13 | 51 | 4.8 | 14.5 | 0.00 | 0.00 | 0.00 | 74 | 1015.7 |
| 20260510070543 | 13 | 309 | 3.2 | 14.5 | 0.00 | 0.00 | 0.00 | 75 | 1015.8 |
| 20260510070049 | 13 | 51 | 4.8 | 17.7 | 0.00 | 0.00 | 0.00 | 75 | 1015.7 |
| 20260510065542 | 12 | 0 | 4.8 | 17.7 | 0.00 | 0.00 | 0.00 | 76 | 1015.7 |
| 20260510065038 | 12 | 45 | 6.4 | 17.7 | 0.00 | 0.00 | 0.00 | 76 | 1015.7 |
| 20260510064543 | 12 | 24 | 4.8 | 20.9 | 0.00 | 0.00 | 0.00 | 78 | 1015.8 |
| 20260510064042 | 12 | 33 | 4.8 | 20.9 | 0.00 | 0.00 | 0.00 | 79 | 1015.7 |
| 20260510063542 | 12 | 328 | 3.2 | 17.7 | 0.00 | 0.00 | 0.00 | 79 | 1015.7 |
| 20260510063049 | 11 | 38 | 4.8 | 17.7 | 0.00 | 0.00 | 0.00 | 81 | 1015.7 |
| 20260510062539 | 11 | 38 | 4.8 | 17.7 | 0.00 | 0.00 | 0.00 | 81 | 1015.8 |
| 20260510062039 | 11 | 279 | 3.2 | 11.3 | 0.00 | 0.00 | 0.00 | 82 | 1015.7 |
| 20260510061600 | 11 | 294 | 3.2 | 14.5 | 0.00 | 0.00 | 0.00 | 83 | 1015.8 |
| 20260510061041 | 11 | 51 | 3.2 | 14.5 | 0.00 | 0.00 | 0.00 | 83 | 1015.8 |
| 20260510060545 | 11 | 312 | 3.2 | 14.5 | 0.00 | 0.00 | 0.00 | 83 | 1015.8 |
| 20260510060048 | 11 | 9 | 3.2 | 14.5 | 0.00 | 0.00 | 0.00 | 84 | 1015.7 |
| 20260510055539 | 11 | 294 | 3.2 | 12.9 | 0.00 | 0.00 | 0.00 | 84 | 1015.6 |
| 20260510055043 | 11 | 61 | 3.2 | 16.1 | 0.00 | 0.00 | 0.00 | 85 | 1015.6 |
| 20260510054605 | 11 | 309 | 1.6 | 16.1 | 0.00 | 0.00 | 0.00 | 85 | 1015.7 |
| 20260510054040 | 10 | 61 | 1.6 | 11.3 | 0.00 | 0.00 | 0.00 | 85 | 1015.7 |
| 20260510053541 | 10 | 49 | 1.6 | 11.3 | 0.00 | 0.00 | 0.00 | 86 | 1015.7 |
| 20260510053048 | 10 | 93 | 1.6 | 8.0 | 0.00 | 0.00 | 0.00 | 86 | 1015.6 |
| 20260510052540 | 10 | 0 | 1.6 | 6.4 | 0.00 | 0.00 | 0.00 | 86 | 1015.7 |
| 20260510052043 | 10 | 41 | 1.6 | 6.4 | 0.00 | 0.00 | 0.00 | 86 | 1015.7 |
| 20260510051554 | 10 | 309 | 1.6 | 6.4 | 0.00 | 0.00 | 0.00 | 86 | 1015.7 |
| 20260510051042 | 10 | 341 | 1.6 | 8.0 | 0.00 | 0.00 | 0.00 | 86 | 1015.7 |
| 20260510050541 | 10 | 0 | 1.6 | 8.0 | 0.00 | 0.00 | 0.00 | 86 | 1015.6 |
| 20260510050058 | 10 | 330 | 1.6 | 8.0 | 0.00 | 0.00 | 0.00 | 86 | 1015.8 |
| 20260510045541 | 10 | 19 | 1.6 | 8.0 | 0.00 | 0.00 | 0.00 | 86 | 1015.7 |
| 20260510045044 | 10 | 22 | 1.6 | 8.0 | 0.00 | 0.00 | 0.00 | 86 | 1015.7 |
| 20260510044558 | 10 | 56 | 1.6 | 8.0 | 0.00 | 0.00 | 0.00 | 86 | 1015.7 |
| 20260510044041 | 10 | 340 | 1.6 | 8.0 | 0.00 | 0.00 | 0.00 | 86 | 1015.7 |
| 20260510043541 | 10 | 329 | 1.6 | 8.0 | 0.00 | 0.00 | 0.00 | 85 | 1015.6 |
| 20260510043048 | 10 | 329 | 1.6 | 8.0 | 0.00 | 0.00 | 0.00 | 85 | 1015.6 |
| 20260510042541 | 10 | 61 | 1.6 | 9.7 | 0.00 | 0.00 | 0.00 | 85 | 1015.6 |
| 20260510042042 | 10 | 63 | 3.2 | 9.7 | 0.00 | 0.00 | 0.00 | 85 | 1015.5 |
| 20260510041636 | 10 | 63 | 1.6 | 6.4 | 0.00 | 0.00 | 0.00 | 85 | 1015.5 |
| 20260510041043 | 10 | 51 | 1.6 | 6.4 | 0.00 | 0.00 | 0.00 | 85 | 1015.5 |
| 20260510040545 | 10 | 49 | 1.6 | 6.4 | 0.00 | 0.00 | 0.00 | 85 | 1015.6 |
| 20260510040049 | 10 | 29 | 1.6 | 6.4 | 0.00 | 0.00 | 0.00 | 85 | 1015.6 |
| 20260510035541 | 10 | 334 | 0.0 | 6.4 | 0.00 | 0.00 | 0.00 | 85 | 1015.5 |
| 20260510035041 | 10 | 282 | 1.6 | 6.4 | 0.00 | 0.00 | 0.00 | 85 | 1015.5 |
| 20260510034558 | 10 | 295 | 1.6 | 6.4 | 0.00 | 0.00 | 0.00 | 85 | 1015.6 |
| 20260510034043 | 10 | 0 | 1.6 | 6.4 | 0.00 | 0.00 | 0.00 | 84 | 1015.5 |
| 20260510033542 | 10 | 26 | 1.6 | 6.4 | 0.00 | 0.00 | 0.00 | 84 | 1015.6 |
| 20260510033055 | 10 | 32 | 0.0 | 6.4 | 0.00 | 0.00 | 0.00 | 84 | 1015.6 |
| 20260510032541 | 10 | 9 | 0.0 | 6.4 | 0.00 | 0.00 | 0.00 | 84 | 1015.7 |
| 20260510032041 | 10 | 61 | 0.0 | 6.4 | 0.00 | 0.00 | 0.00 | 84 | 1015.7 |
| 20260510031556 | 10 | 93 | 0.0 | 6.4 | 0.00 | 0.00 | 0.00 | 84 | 1015.8 |
| 20260510031044 | 10 | 286 | 0.0 | 6.4 | 0.00 | 0.00 | 0.00 | 84 | 1015.9 |
| 20260510030540 | 10 | 0 | 0.0 | 6.4 | 0.00 | 0.00 | 0.00 | 84 | 1015.8 |
| 20260510030053 | 10 | 0 | 0.0 | 6.4 | 0.00 | 0.00 | 0.00 | 83 | 1015.8 |
| 20260510025541 | 10 | 57 | 0.0 | 6.4 | 0.00 | 0.00 | 0.00 | 83 | 1016.0 |
| 20260510025041 | 10 | 309 | 1.6 | 4.8 | 0.00 | 0.00 | 0.00 | 83 | 1015.8 |
| 20260510024720 | 10 | 9 | 0.0 | 4.8 | 0.00 | 0.00 | 0.00 | 83 | 1015.9 |
| 20260510024040 | 10 | 38 | 0.0 | 4.8 | 0.00 | 0.00 | 0.00 | 83 | 1015.7 |
| 20260510023541 | 10 | 0 | 0.0 | 4.8 | 0.00 | 0.00 | 0.00 | 83 | 1015.7 |
| 20260510023100 | 10 | 34 | 0.0 | 3.2 | 0.00 | 0.00 | 0.00 | 83 | 1015.8 |
| 20260510022542 | 10 | 0 | 0.0 | 4.8 | 0.00 | 0.00 | 0.00 | 82 | 1015.9 |
| 20260510022043 | 10 | 9 | 0.0 | 4.8 | 0.00 | 0.00 | 0.00 | 83 | 1015.8 |
| 20260510021547 | 9 | 334 | 0.0 | 3.2 | 0.00 | 0.00 | 0.00 | 82 | 1015.8 |
| 20260510021041 | 10 | 0 | 0.0 | 3.2 | 0.00 | 0.00 | 0.00 | 82 | 1015.9 |
| 20260510020541 | 10 | 295 | 0.0 | 3.2 | 0.00 | 0.00 | 0.00 | 81 | 1015.9 |
| 20260510020046 | 10 | 0 | 0.0 | 4.8 | 0.00 | 0.00 | 0.00 | 81 | 1015.8 |
| 20260510015539 | 10 | 0 | 0.0 | 4.8 | 0.00 | 0.00 | 0.00 | 81 | 1015.9 |
| 20260510015041 | 10 | 0 | 0.0 | 6.4 | 0.00 | 0.00 | 0.00 | 81 | 1016.0 |
| 20260510014610 | 10 | 51 | 0.0 | 6.4 | 0.00 | 0.00 | 0.00 | 80 | 1015.9 |
| 20260510014041 | 10 | 0 | 0.0 | 6.4 | 0.00 | 0.00 | 0.00 | 80 | 1016.0 |
| 20260510013545 | 10 | 9 | 0.0 | 4.8 | 0.00 | 0.00 | 0.00 | 80 | 1016.0 |
| 20260510013101 | 10 | 0 | 0.0 | 4.8 | 0.00 | 0.00 | 0.00 | 79 | 1016.1 |
| 20260510012545 | 10 | 265 | 0.0 | 4.8 | 0.00 | 0.00 | 0.00 | 79 | 1016.1 |
| 20260510012041 | 10 | 0 | 0.0 | 4.8 | 0.00 | 0.00 | 0.00 | 78 | 1016.0 |
| 20260510011550 | 10 | 0 | 0.0 | 4.8 | 0.00 | 0.00 | 0.00 | 78 | 1016.0 |
| 20260510011041 | 10 | 51 | 0.0 | 4.8 | 0.00 | 0.00 | 0.00 | 78 | 1016.0 |
| 20260510010539 | 10 | 0 | 0.0 | 6.4 | 0.00 | 0.00 | 0.00 | 78 | 1016.1 |
| 20260510010051 | 10 | 0 | 1.6 | 6.4 | 0.00 | 0.00 | 0.00 | 77 | 1016.0 |
| 20260510005543 | 10 | 0 | 0.0 | 4.8 | 0.00 | 0.00 | 0.00 | 77 | 1016.0 |
| 20260510005042 | 10 | 0 | 0.0 | 3.2 | 0.00 | 0.00 | 0.00 | 76 | 1016.3 |
| 20260510004550 | 10 | 0 | 0.0 | 6.4 | 0.00 | 0.00 | 0.00 | 76 | 1016.3 |
| 20260510004041 | 11 | 0 | 0.0 | 6.4 | 0.00 | 0.00 | 0.00 | 76 | 1016.2 |
| 20260510003541 | 11 | 0 | 1.6 | 4.8 | 0.00 | 0.00 | 0.00 | 76 | 1016.2 |
| 20260510003049 | 11 | 0 | 0.0 | 3.2 | 0.00 | 0.00 | 0.00 | 75 | 1016.2 |
| 20260510002540 | 11 | 9 | 0.0 | 3.2 | 0.00 | 0.00 | 0.00 | 75 | 1016.1 |
| 20260510002041 | 11 | 0 | 0.0 | 3.2 | 0.00 | 0.00 | 0.00 | 75 | 1016.2 |
| 20260510001549 | 11 | 309 | 0.0 | 3.2 | 0.00 | 0.00 | 0.00 | 75 | 1016.2 |
| 20260510001041 | 11 | 0 | 0.0 | 4.8 | 0.00 | 0.00 | 0.00 | 75 | 1016.3 |
| 20260510000540 | 11 | 0 | 0.0 | 4.8 | 0.00 | 0.00 | 0.00 | 75 | 1016.4 |
| 20260510000049 | 11 | 9 | 0.0 | 3.2 | 0.00 | 0.00 | 0.00 | 75 | 1016.4 |
| 20260509235551 | 11 | 0 | 0.0 | 3.2 | 0.00 | 0.00 | 0.00 | 74 | 1016.4 |
| 20260509235043 | 11 | 309 | 0.0 | 3.2 | 0.00 | 0.00 | 0.00 | 74 | 1016.5 |
| 20260509234551 | 11 | 0 | 0.0 | 3.2 | 0.00 | 0.00 | 0.00 | 73 | 1016.5 |
| 20260509234041 | 11 | 0 | 0.0 | 3.2 | 0.00 | 0.00 | 0.00 | 73 | 1016.5 |
| 20260509233542 | 11 | 0 | 0.0 | 4.8 | 0.00 | 0.00 | 0.00 | 73 | 1016.6 |
| 20260509233050 | 11 | 325 | 0.0 | 4.8 | 0.00 | 0.00 | 0.00 | 72 | 1016.5 |
| 20260509232541 | 11 | 16 | 0.0 | 4.8 | 0.00 | 0.00 | 0.00 | 72 | 1016.5 |
| 20260509232041 | 11 | 0 | 0.0 | 4.8 | 0.00 | 0.00 | 0.00 | 71 | 1016.5 |
| 20260509231600 | 11 | 51 | 0.0 | 6.4 | 0.00 | 0.00 | 0.00 | 71 | 1016.5 |
| 20260509231041 | 11 | 0 | 0.0 | 6.4 | 0.00 | 0.00 | 0.00 | 72 | 1016.6 |
| 20260509230541 | 11 | 243 | 0.0 | 4.8 | 0.00 | 0.00 | 0.00 | 71 | 1016.5 |
| 20260509230048 | 12 | 319 | 0.0 | 4.8 | 0.00 | 0.00 | 0.00 | 71 | 1016.5 |
| 20260509225541 | 12 | 76 | 0.0 | 6.4 | 0.00 | 0.00 | 0.00 | 70 | 1016.5 |
| 20260509225040 | 12 | 24 | 0.0 | 6.4 | 0.00 | 0.00 | 0.00 | 70 | 1016.5 |
| 20260509224549 | 12 | 0 | 1.6 | 4.8 | 0.00 | 0.00 | 0.00 | 70 | 1016.5 |
| 20260509224045 | 12 | 55 | 0.0 | 6.4 | 0.00 | 0.00 | 0.00 | 70 | 1016.5 |
| 20260509223541 | 12 | 68 | 1.6 | 6.4 | 0.00 | 0.00 | 0.00 | 70 | 1016.5 |
| 20260509223054 | 12 | 0 | 1.6 | 6.4 | 0.00 | 0.00 | 0.00 | 70 | 1016.4 |
| 20260509222542 | 12 | 26 | 1.6 | 6.4 | 0.00 | 0.00 | 0.00 | 70 | 1016.3 |
| 20260509222040 | 12 | 9 | 0.0 | 3.2 | 0.00 | 0.00 | 0.00 | 70 | 1016.5 |
| 20260509221548 | 12 | 44 | 0.0 | 6.4 | 0.00 | 0.00 | 0.00 | 69 | 1016.4 |
| 20260509221039 | 12 | 0 | 0.0 | 6.4 | 0.00 | 0.00 | 0.00 | 69 | 1016.4 |
| 20260509220539 | 12 | 0 | 1.6 | 4.8 | 0.00 | 0.00 | 0.00 | 69 | 1016.4 |
| 20260509220048 | 12 | 0 | 0.0 | 4.8 | 0.00 | 0.00 | 0.00 | 69 | 1016.5 |
| 20260509215545 | 12 | 0 | 0.0 | 4.8 | 0.00 | 0.00 | 0.00 | 69 | 1016.5 |
| 20260509215041 | 12 | 48 | 0.0 | 3.2 | 0.00 | 0.00 | 0.00 | 68 | 1016.6 |
| 20260509214549 | 13 | 309 | 0.0 | 3.2 | 0.00 | 0.00 | 0.00 | 68 | 1016.5 |
| 20260509214046 | 13 | 22 | 0.0 | 6.4 | 0.00 | 0.00 | 0.00 | 67 | 1016.5 |
| 20260509213539 | 13 | 0 | 0.0 | 6.4 | 0.00 | 0.00 | 0.00 | 67 | 1016.4 |
| 20260509213049 | 13 | 28 | 0.0 | 3.2 | 0.00 | 0.00 | 0.00 | 68 | 1016.5 |
| 20260509212540 | 13 | 0 | 0.0 | 4.8 | 0.00 | 0.00 | 0.00 | 67 | 1016.5 |
| 20260509212040 | 13 | 0 | 0.0 | 4.8 | 0.00 | 0.00 | 0.00 | 66 | 1016.4 |
| 20260509211553 | 13 | 0 | 1.6 | 4.8 | 0.00 | 0.00 | 0.00 | 65 | 1016.4 |
| 20260509211039 | 13 | 0 | 0.0 | 8.0 | 0.00 | 0.00 | 0.00 | 65 | 1016.4 |
| 20260509210540 | 14 | 9 | 0.0 | 8.0 | 0.00 | 0.00 | 0.00 | 65 | 1016.3 |
| 20260509210052 | 14 | 51 | 0.0 | 8.0 | 0.00 | 0.00 | 0.00 | 64 | 1016.3 |
| 20260509205540 | 14 | 51 | 1.6 | 9.7 | 0.00 | 0.00 | 0.00 | 64 | 1016.3 |
| 20260509205039 | 14 | 38 | 1.6 | 9.7 | 0.00 | 0.00 | 0.00 | 64 | 1016.3 |
| 20260509204553 | 14 | 41 | 1.6 | 6.4 | 0.00 | 0.00 | 0.00 | 64 | 1016.4 |
| 20260509204041 | 14 | 0 | 1.6 | 6.4 | 0.00 | 0.00 | 0.00 | 64 | 1016.5 |
| 20260509203540 | 15 | 71 | 1.6 | 6.4 | 0.00 | 0.00 | 0.00 | 64 | 1016.4 |
| 20260509203051 | 15 | 0 | 0.0 | 6.4 | 0.00 | 0.00 | 0.00 | 63 | 1016.5 |
| 20260509202540 | 15 | 34 | 1.6 | 6.4 | 0.00 | 0.00 | 0.00 | 63 | 1016.4 |
| 20260509202041 | 15 | 0 | 1.6 | 4.8 | 0.00 | 0.00 | 0.00 | 64 | 1016.6 |
| 20260509201549 | 15 | 0 | 0.0 | 3.2 | 0.00 | 0.00 | 0.00 | 63 | 1016.6 |
| 20260509201040 | 15 | 61 | 0.0 | 3.2 | 0.00 | 0.00 | 0.00 | 63 | 1016.6 |
| 20260509200540 | 15 | 291 | 0.0 | 8.0 | 0.00 | 0.00 | 0.00 | 62 | 1016.6 |
| 20260509200049 | 15 | 0 | 0.0 | 8.0 | 0.00 | 0.00 | 0.00 | 61 | 1016.3 |
| 20260509195541 | 15 | 17 | 0.0 | 8.0 | 0.00 | 0.00 | 0.00 | 61 | 1016.3 |
| 20260509195041 | 15 | 0 | 1.6 | 6.4 | 0.00 | 0.00 | 0.00 | 61 | 1016.2 |
| 20260509194549 | 16 | 41 | 0.0 | 6.4 | 0.00 | 0.00 | 0.00 | 61 | 1016.0 |
| 20260509194040 | 16 | 41 | 0.0 | 6.4 | 0.00 | 0.00 | 0.00 | 61 | 1016.0 |
| 20260509193540 | 16 | 321 | 0.0 | 4.8 | 0.00 | 0.00 | 0.00 | 61 | 1016.0 |
| 20260509193049 | 16 | 51 | 0.0 | 4.8 | 0.00 | 0.00 | 0.00 | 59 | 1016.0 |
| 20260509192540 | 16 | 68 | 0.0 | 4.8 | 0.00 | 0.00 | 0.00 | 59 | 1016.0 |
| 20260509192039 | 16 | 19 | 0.0 | 4.8 | 0.00 | 0.00 | 0.00 | 58 | 1016.0 |
| 20260509191550 | 16 | 9 | 0.0 | 8.0 | 0.00 | 0.00 | 0.00 | 58 | 1016.0 |
| 20260509191040 | 17 | 9 | 0.0 | 8.0 | 0.00 | 0.00 | 0.00 | 58 | 1016.0 |
| 20260509190545 | 17 | 0 | 1.6 | 6.4 | 0.00 | 0.00 | 0.00 | 57 | 1015.9 |
| 20260509190050 | 17 | 34 | 0.0 | 6.4 | 0.00 | 0.00 | 0.00 | 57 | 1015.9 |
| 20260509185539 | 17 | 34 | 1.6 | 6.4 | 0.00 | 0.00 | 0.00 | 56 | 1015.8 |
| 20260509185040 | 17 | 0 | 0.0 | 6.4 | 0.00 | 0.00 | 0.00 | 55 | 1015.8 |
| 20260509184553 | 17 | 9 | 1.6 | 6.4 | 0.00 | 0.00 | 0.00 | 54 | 1015.8 |
| 20260509184039 | 18 | 0 | 0.0 | 6.4 | 0.00 | 0.00 | 0.00 | 54 | 1015.8 |
| 20260509183540 | 18 | 26 | 1.6 | 6.4 | 0.00 | 0.00 | 0.00 | 53 | 1015.8 |
| 20260509183049 | 18 | 0 | 1.6 | 6.4 | 0.00 | 0.00 | 0.00 | 53 | 1015.8 |
| 20260509182542 | 18 | 63 | 1.6 | 6.4 | 0.00 | 0.00 | 0.00 | 53 | 1015.8 |
| 20260509182040 | 18 | 26 | 0.0 | 6.4 | 0.00 | 0.00 | 0.00 | 52 | 1015.9 |
| 20260509181549 | 18 | 56 | 1.6 | 6.4 | 0.00 | 0.00 | 0.00 | 51 | 1015.9 |
| 20260509181041 | 18 | 51 | 1.6 | 6.4 | 0.00 | 0.00 | 0.00 | 51 | 1015.9 |
| 20260509180540 | 19 | 0 | 1.6 | 6.4 | 0.00 | 0.00 | 0.00 | 50 | 1015.9 |
| 20260509180047 | 19 | 0 | 1.6 | 6.4 | 0.00 | 0.00 | 0.00 | 50 | 1015.8 |
| 20260509175540 | 19 | 265 | 0.0 | 6.4 | 0.00 | 0.00 | 0.00 | 50 | 1015.7 |
| 20260509175040 | 19 | 265 | 1.6 | 6.4 | 0.00 | 0.00 | 0.00 | 50 | 1015.7 |
| 20260509174546 | 20 | 334 | 1.6 | 6.4 | 0.00 | 0.00 | 0.00 | 49 | 1015.7 |
| 20260509174039 | 20 | 51 | 0.0 | 8.0 | 0.00 | 0.00 | 0.00 | 51 | 1015.7 |
| 20260509173542 | 20 | 0 | 1.6 | 8.0 | 0.00 | 0.00 | 0.00 | 48 | 1015.7 |
| 20260509173116 | 20 | 26 | 3.2 | 8.0 | 0.00 | 0.00 | 0.00 | 48 | 1015.6 |
| 20260509172541 | 20 | 51 | 3.2 | 9.7 | 0.00 | 0.00 | 0.00 | 47 | 1015.6 |
| 20260509172040 | 20 | 0 | 1.6 | 9.7 | 0.00 | 0.00 | 0.00 | 46 | 1015.6 |
| 20260509171546 | 20 | 30 | 1.6 | 9.7 | 0.00 | 0.00 | 0.00 | 46 | 1015.5 |
| 20260509171040 | 20 | 257 | 1.6 | 8.0 | 0.00 | 0.00 | 0.00 | 46 | 1015.4 |
| 20260509170543 | 20 | 26 | 1.6 | 6.4 | 0.00 | 0.00 | 0.00 | 48 | 1015.5 |
| 20260509170053 | 20 | 309 | 0.0 | 4.8 | 0.00 | 0.00 | 0.00 | 46 | 1015.5 |
| 20260509165539 | 20 | 0 | 0.0 | 4.8 | 0.00 | 0.00 | 0.00 | 46 | 1015.7 |
| 20260509165040 | 20 | 34 | 0.0 | 6.4 | 0.00 | 0.00 | 0.00 | 47 | 1015.8 |
| 20260509164557 | 19 | 291 | 1.6 | 6.4 | 0.00 | 0.00 | 0.00 | 49 | 1015.8 |
| 20260509164040 | 19 | 0 | 0.0 | 4.8 | 0.00 | 0.00 | 0.00 | 48 | 1015.8 |
| 20260509163541 | 20 | 334 | 1.6 | 6.4 | 0.00 | 0.00 | 0.00 | 48 | 1015.8 |
| 20260509163048 | 20 | 309 | 1.6 | 8.0 | 0.00 | 0.00 | 0.00 | 48 | 1015.7 |
| 20260509162542 | 20 | 9 | 1.6 | 8.0 | 0.00 | 0.00 | 0.00 | 48 | 1015.8 |
| 20260509162039 | 20 | 309 | 1.6 | 9.7 | 0.00 | 0.00 | 0.00 | 47 | 1015.8 |
| 20260509161550 | 20 | 0 | 1.6 | 9.7 | 0.00 | 0.00 | 0.00 | 45 | 1015.8 |
| 20260509161043 | 21 | 59 | 1.6 | 9.7 | 0.00 | 0.00 | 0.00 | 45 | 1015.8 |
| 20260509160539 | 21 | 280 | 1.6 | 12.9 | 0.00 | 0.00 | 0.00 | 45 | 1015.8 |
| 20260509160051 | 21 | 295 | 3.2 | 12.9 | 0.00 | 0.00 | 0.00 | 45 | 1015.8 |
| 20260509155540 | 21 | 45 | 3.2 | 11.3 | 0.00 | 0.00 | 0.00 | 43 | 1015.9 |
| 20260509155040 | 21 | 51 | 1.6 | 9.7 | 0.00 | 0.00 | 0.00 | 42 | 1015.9 |
| 20260509154547 | 21 | 0 | 1.6 | 9.7 | 0.00 | 0.00 | 0.00 | 45 | 1016.0 |
| 20260509154041 | 21 | 129 | 1.6 | 8.0 | 0.00 | 0.00 | 0.00 | 44 | 1015.9 |
| 20260509153543 | 21 | 51 | 1.6 | 8.0 | 0.00 | 0.00 | 0.00 | 44 | 1016.0 |
| 20260509153046 | 21 | 265 | 1.6 | 12.9 | 0.00 | 0.00 | 0.00 | 45 | 1015.9 |
| 20260509152541 | 21 | 0 | 1.6 | 12.9 | 0.00 | 0.00 | 0.00 | 45 | 1016.0 |
| 20260509152041 | 21 | 117 | 3.2 | 12.9 | 0.00 | 0.00 | 0.00 | 46 | 1016.0 |
| 20260509151605 | 21 | 113 | 4.8 | 12.9 | 0.00 | 0.00 | 0.00 | 44 | 1016.1 |
| 20260509151043 | 21 | 153 | 3.2 | 9.7 | 0.00 | 0.00 | 0.00 | 43 | 1016.2 |
| 20260509150540 | 21 | 219 | 3.2 | 11.3 | 0.00 | 0.00 | 0.00 | 43 | 1016.1 |
| 20260509150050 | 21 | 9 | 1.6 | 12.9 | 0.00 | 0.00 | 0.00 | 43 | 1016.1 |
| 20260509145540 | 21 | 120 | 4.8 | 12.9 | 0.00 | 0.00 | 0.00 | 43 | 1016.2 |
| 20260509145039 | 21 | 242 | 4.8 | 11.3 | 0.00 | 0.00 | 0.00 | 44 | 1016.3 |
| 20260509144542 | 21 | 110 | 1.6 | 9.7 | 0.00 | 0.00 | 0.00 | 45 | 1016.3 |
| 20260509144042 | 20 | 142 | 1.6 | 12.9 | 0.00 | 0.00 | 0.00 | 45 | 1016.4 |
| 20260509143541 | 21 | 140 | 3.2 | 12.9 | 0.00 | 0.00 | 0.00 | 48 | 1016.4 |
| 20260509143053 | 20 | 9 | 3.2 | 12.9 | 0.00 | 0.00 | 0.00 | 45 | 1016.5 |
| 20260509142543 | 21 | 124 | 1.6 | 11.3 | 0.00 | 0.00 | 0.00 | 45 | 1016.5 |
| 20260509142045 | 21 | 309 | 1.6 | 12.9 | 0.00 | 0.00 | 0.00 | 45 | 1016.5 |
| 20260509141552 | 21 | 102 | 3.2 | 12.9 | 0.00 | 0.00 | 0.00 | 45 | 1016.5 |
| 20260509141041 | 21 | 79 | 1.6 | 11.3 | 0.00 | 0.00 | 0.00 | 45 | 1016.5 |
| 20260509140542 | 22 | 128 | 3.2 | 11.3 | 0.00 | 0.00 | 0.00 | 44 | 1016.6 |
| 20260509140052 | 21 | 38 | 3.2 | 11.3 | 0.00 | 0.00 | 0.00 | 49 | 1016.6 |
| 20260509135541 | 21 | 221 | 1.6 | 9.7 | 0.00 | 0.00 | 0.00 | 44 | 1016.6 |
| 20260509135038 | 21 | 255 | 1.6 | 11.3 | 0.00 | 0.00 | 0.00 | 45 | 1016.6 |
| 20260509134546 | 21 | 50 | 1.6 | 12.9 | 0.00 | 0.00 | 0.00 | 47 | 1016.7 |
| 20260509134042 | 21 | 141 | 1.6 | 12.9 | 0.00 | 0.00 | 0.00 | 47 | 1016.7 |
| 20260509133542 | 21 | 165 | 3.2 | 12.9 | 0.00 | 0.00 | 0.00 | 45 | 1016.8 |
| 20260509133050 | 21 | 110 | 1.6 | 9.7 | 0.00 | 0.00 | 0.00 | 45 | 1016.9 |
| 20260509132539 | 21 | 120 | 1.6 | 12.9 | 0.00 | 0.00 | 0.00 | 44 | 1017.0 |
| 20260509132039 | 21 | 102 | 4.8 | 12.9 | 0.00 | 0.00 | 0.00 | 44 | 1017.0 |
| 20260509131602 | 21 | 169 | 1.6 | 11.3 | 0.00 | 0.00 | 0.00 | 46 | 1017.0 |
| 20260509131042 | 21 | 144 | 3.2 | 12.9 | 0.00 | 0.00 | 0.00 | 46 | 1017.1 |
| 20260509130542 | 21 | 9 | 1.6 | 12.9 | 0.00 | 0.00 | 0.00 | 47 | 1017.2 |
| 20260509130112 | 21 | 265 | 3.2 | 12.9 | 0.00 | 0.00 | 0.00 | 47 | 1017.2 |
| 20260509125541 | 21 | 93 | 1.6 | 9.7 | 0.00 | 0.00 | 0.00 | 47 | 1017.2 |
| 20260509125044 | 21 | 344 | 3.2 | 9.7 | 0.00 | 0.00 | 0.00 | 48 | 1017.3 |
| 20260509124549 | 21 | 44 | 1.6 | 9.7 | 0.00 | 0.00 | 0.00 | 48 | 1017.4 |
| 20260509124038 | 21 | 0 | 3.2 | 9.7 | 0.00 | 0.00 | 0.00 | 46 | 1017.4 |
| 20260509123540 | 21 | 56 | 1.6 | 8.0 | 0.00 | 0.00 | 0.00 | 47 | 1017.4 |
| 20260509123117 | 21 | 137 | 1.6 | 14.5 | 0.00 | 0.00 | 0.00 | 47 | 1017.5 |
| 20260509122540 | 21 | 178 | 3.2 | 14.5 | 0.00 | 0.00 | 0.00 | 47 | 1017.5 |
| 20260509122038 | 21 | 239 | 3.2 | 8.0 | 0.00 | 0.00 | 0.00 | 47 | 1017.6 |
| 20260509121555 | 20 | 113 | 1.6 | 8.0 | 0.00 | 0.00 | 0.00 | 50 | 1017.6 |
| 20260509121043 | 20 | 137 | 1.6 | 8.0 | 0.00 | 0.00 | 0.00 | 51 | 1017.7 |
| 20260509120539 | 19 | 0 | 1.6 | 9.7 | 0.00 | 0.00 | 0.00 | 53 | 1017.8 |
| 20260509120053 | 19 | 0 | 1.6 | 12.9 | 0.00 | 0.00 | 0.00 | 51 | 1017.7 |
| 20260509115541 | 20 | 51 | 1.6 | 14.5 | 0.00 | 0.00 | 0.00 | 51 | 1017.8 |
| 20260509115041 | 20 | 36 | 3.2 | 14.5 | 0.00 | 0.00 | 0.00 | 49 | 1017.8 |
| 20260509114614 | 21 | 175 | 3.2 | 14.5 | 0.00 | 0.00 | 0.00 | 50 | 1017.8 |
| 20260509114042 | 21 | 46 | 3.2 | 16.1 | 0.00 | 0.00 | 0.00 | 47 | 1017.8 |
| 20260509113542 | 20 | 312 | 3.2 | 17.7 | 0.00 | 0.00 | 0.00 | 49 | 1017.9 |
| 20260509113058 | 20 | 38 | 4.8 | 17.7 | 0.00 | 0.00 | 0.00 | 49 | 1018.0 |
| 20260509112542 | 21 | 36 | 4.8 | 16.1 | 0.00 | 0.00 | 0.00 | 50 | 1018.0 |
| 20260509112040 | 21 | 47 | 4.8 | 14.5 | 0.00 | 0.00 | 0.00 | 49 | 1018.1 |
| 20260509111551 | 20 | 221 | 1.6 | 6.4 | 0.00 | 0.00 | 0.00 | 52 | 1018.1 |
| 20260509111041 | 19 | 76 | 1.6 | 8.0 | 0.00 | 0.00 | 0.00 | 50 | 1018.0 |
| 20260509110541 | 19 | 68 | 1.6 | 9.7 | 0.00 | 0.00 | 0.00 | 50 | 1018.1 |
| 20260509110056 | 20 | 85 | 1.6 | 14.5 | 0.00 | 0.00 | 0.00 | 51 | 1018.3 |
| 20260509105540 | 20 | 9 | 1.6 | 14.5 | 0.00 | 0.00 | 0.00 | 49 | 1018.3 |
| 20260509105042 | 20 | 341 | 3.2 | 14.5 | 0.00 | 0.00 | 0.00 | 49 | 1018.3 |
| 20260509104548 | 20 | 295 | 3.2 | 11.3 | 0.00 | 0.00 | 0.00 | 50 | 1018.4 |
| 20260509104043 | 20 | 106 | 1.6 | 12.9 | 0.00 | 0.00 | 0.00 | 49 | 1018.4 |
| 20260509103539 | 20 | 254 | 3.2 | 12.9 | 0.00 | 0.00 | 0.00 | 49 | 1018.4 |
| 20260509103049 | 20 | 9 | 4.8 | 14.5 | 0.00 | 0.00 | 0.00 | 49 | 1018.4 |
| 20260509102542 | 20 | 41 | 3.2 | 14.5 | 0.00 | 0.00 | 0.00 | 52 | 1018.5 |
| 20260509102040 | 20 | 178 | 1.6 | 14.5 | 0.00 | 0.00 | 0.00 | 49 | 1018.4 |
| 20260509101558 | 20 | 22 | 1.6 | 14.5 | 0.00 | 0.00 | 0.00 | 52 | 1018.5 |
| 20260509101040 | 19 | 93 | 4.8 | 14.5 | 0.00 | 0.00 | 0.00 | 51 | 1018.4 |
| 20260509100540 | 19 | 282 | 1.6 | 14.5 | 0.00 | 0.00 | 0.00 | 53 | 1018.4 |
| 20260509100051 | 18 | 0 | 3.2 | 9.7 | 0.00 | 0.00 | 0.00 | 51 | 1018.5 |
| 20260509095538 | 19 | 265 | 1.6 | 19.3 | 0.00 | 0.00 | 0.00 | 53 | 1018.4 |
| 20260509095041 | 19 | 34 | 1.6 | 19.3 | 0.00 | 0.00 | 0.00 | 53 | 1018.4 |
| 20260509094543 | 19 | 68 | 3.2 | 12.9 | 0.00 | 0.00 | 0.00 | 54 | 1018.4 |
| 20260509094039 | 19 | 124 | 3.2 | 11.3 | 0.00 | 0.00 | 0.00 | 55 | 1018.5 |
| 20260509093542 | 19 | 265 | 3.2 | 11.3 | 0.00 | 0.00 | 0.00 | 55 | 1018.5 |
| 20260509093048 | 19 | 9 | 1.6 | 9.7 | 0.00 | 0.00 | 0.00 | 51 | 1018.5 |
| 20260509092542 | 19 | 72 | 1.6 | 12.9 | 0.00 | 0.00 | 0.00 | 55 | 1018.5 |
| 20260509092040 | 19 | 80 | 1.6 | 12.9 | 0.00 | 0.00 | 0.00 | 55 | 1018.5 |